| time (UTC) | temp C | wind direction | speed KPH | gust KPH | rain 1hr cm | rain 24hr cm | rain mn cm | humidity % | barometer mb |
| 20260510112005 | 7 | 248 | 12.9 | 16.1 | 0.00 | 0.00 | 0.00 | 56 | 1016.7 |
| 20260510111504 | 7 | 260 | 12.9 | 16.1 | 0.00 | 0.00 | 0.00 | 55 | 1016.7 |
| 20260510111005 | 7 | 247 | 12.9 | 16.1 | 0.00 | 0.00 | 0.00 | 55 | 1016.7 |
| 20260510110005 | 7 | 231 | 8.0 | 12.9 | 0.00 | 0.00 | 0.00 | 55 | 1016.7 |
| 20260510105504 | 7 | 236 | 9.7 | 12.9 | 0.00 | 0.00 | 0.00 | 55 | 1016.7 |
| 20260510105004 | 8 | 232 | 8.0 | 11.3 | 0.00 | 0.00 | 0.00 | 54 | 1016.6 |
| 20260510104504 | 8 | 235 | 9.7 | 11.3 | 0.00 | 0.00 | 0.00 | 54 | 1016.7 |
| 20260510103504 | 8 | 233 | 9.7 | 14.5 | 0.00 | 0.00 | 0.00 | 53 | 1016.8 |
| 20260510103004 | 8 | 233 | 9.7 | 14.5 | 0.00 | 0.00 | 0.00 | 53 | 1016.8 |
| 20260510102505 | 8 | 235 | 9.7 | 14.5 | 0.00 | 0.00 | 0.00 | 53 | 1016.8 |
| 20260510102004 | 8 | 230 | 9.7 | 14.5 | 0.00 | 0.00 | 0.00 | 53 | 1016.8 |
| 20260510101005 | 8 | 234 | 11.3 | 12.9 | 0.00 | 0.00 | 0.00 | 54 | 1016.7 |
| 20260510100005 | 8 | 238 | 8.0 | 11.3 | 0.00 | 0.00 | 0.00 | 54 | 1016.8 |
| 20260510095504 | 8 | 234 | 8.0 | 14.5 | 0.00 | 0.00 | 0.00 | 54 | 1016.8 |
| 20260510094504 | 8 | 232 | 9.7 | 16.1 | 0.00 | 0.00 | 0.00 | 54 | 1016.7 |
| 20260510093504 | 8 | 235 | 11.3 | 19.3 | 0.00 | 0.00 | 0.00 | 54 | 1016.6 |
| 20260510092504 | 8 | 232 | 11.3 | 16.1 | 0.00 | 0.00 | 0.00 | 55 | 1016.6 |
| 20260510092004 | 8 | 231 | 11.3 | 19.3 | 0.00 | 0.00 | 0.00 | 55 | 1016.5 |
| 20260510091504 | 8 | 235 | 12.9 | 19.3 | 0.00 | 0.00 | 0.00 | 55 | 1016.5 |
| 20260510091004 | 8 | 234 | 12.9 | 19.3 | 0.00 | 0.00 | 0.00 | 54 | 1016.5 |
| 20260510085504 | 8 | 233 | 12.9 | 19.3 | 0.00 | 0.00 | 0.00 | 54 | 1016.4 |
| 20260510085005 | 8 | 233 | 14.5 | 19.3 | 0.00 | 0.00 | 0.00 | 54 | 1016.4 |
| 20260510084504 | 8 | 233 | 12.9 | 19.3 | 0.00 | 0.00 | 0.00 | 55 | 1016.4 |
| 20260510084004 | 8 | 232 | 14.5 | 19.3 | 0.00 | 0.00 | 0.00 | 55 | 1016.3 |
| 20260510083505 | 7 | 232 | 12.9 | 19.3 | 0.00 | 0.00 | 0.00 | 57 | 1016.4 |
| 20260510082505 | 7 | 234 | 11.3 | 14.5 | 0.00 | 0.00 | 0.00 | 58 | 1016.4 |
| 20260510082004 | 7 | 231 | 11.3 | 14.5 | 0.00 | 0.00 | 0.00 | 59 | 1016.3 |
| 20260510081504 | 7 | 234 | 9.7 | 14.5 | 0.00 | 0.00 | 0.00 | 59 | 1016.3 |
| 20260510081005 | 7 | 233 | 9.7 | 14.5 | 0.00 | 0.00 | 0.00 | 59 | 1016.4 |
| 20260510080004 | 7 | 243 | 12.9 | 19.3 | 0.00 | 0.00 | 0.00 | 60 | 1016.3 |
| 20260510075505 | 7 | 246 | 14.5 | 19.3 | 0.00 | 0.00 | 0.00 | 60 | 1016.3 |
| 20260510075004 | 7 | 240 | 8.0 | 12.9 | 0.00 | 0.00 | 0.00 | 60 | 1016.2 |
| 20260510073504 | 7 | 251 | 9.7 | 14.5 | 0.00 | 0.00 | 0.00 | 62 | 1016.2 |
| 20260510073005 | 7 | 251 | 9.7 | 14.5 | 0.00 | 0.00 | 0.00 | 61 | 1016.1 |
| 20260510072505 | 7 | 237 | 8.0 | 12.9 | 0.00 | 0.00 | 0.00 | 59 | 1016.1 |
| 20260510072004 | 7 | 231 | 9.7 | 12.9 | 0.00 | 0.00 | 0.00 | 59 | 1016.1 |
| 20260510071504 | 7 | 232 | 9.7 | 12.9 | 0.00 | 0.00 | 0.00 | 60 | 1016.1 |
| 20260510071004 | 7 | 235 | 9.7 | 11.3 | 0.00 | 0.00 | 0.00 | 61 | 1016.1 |
| 20260510070004 | 7 | 240 | 8.0 | 12.9 | 0.00 | 0.00 | 0.00 | 60 | 1016.1 |
| 20260510065504 | 7 | 227 | 8.0 | 9.7 | 0.00 | 0.00 | 0.00 | 61 | 1016.1 |
| 20260510065004 | 7 | 209 | 8.0 | 9.7 | 0.00 | 0.00 | 0.00 | 63 | 1016.1 |
| 20260510064504 | 7 | 204 | 6.4 | 11.3 | 0.00 | 0.00 | 0.00 | 63 | 1016.1 |
| 20260510064004 | 7 | 203 | 8.0 | 12.9 | 0.00 | 0.00 | 0.00 | 64 | 1016.1 |
| 20260510063504 | 7 | 202 | 6.4 | 12.9 | 0.00 | 0.00 | 0.00 | 64 | 1016.0 |
| 20260510063005 | 7 | 199 | 9.7 | 12.9 | 0.00 | 0.00 | 0.00 | 64 | 1016.0 |
| 20260510062505 | 7 | 195 | 11.3 | 11.3 | 0.00 | 0.00 | 0.00 | 64 | 1015.9 |
| 20260510062005 | 7 | 194 | 9.7 | 11.3 | 0.00 | 0.00 | 0.00 | 64 | 1016.0 |
| 20260510061504 | 7 | 197 | 8.0 | 9.7 | 0.00 | 0.00 | 0.00 | 64 | 1016.0 |
| 20260510061004 | 7 | 189 | 6.4 | 11.3 | 0.00 | 0.00 | 0.00 | 64 | 1016.0 |
| 20260510060005 | 7 | 194 | 9.7 | 11.3 | 0.00 | 0.00 | 0.00 | 64 | 1015.9 |
| 20260510055504 | 7 | 199 | 9.7 | 11.3 | 0.00 | 0.00 | 0.00 | 64 | 1015.9 |
| 20260510055005 | 8 | 201 | 8.0 | 9.7 | 0.00 | 0.00 | 0.00 | 65 | 1015.9 |
| 20260510054005 | 8 | 178 | 9.7 | 9.7 | 0.00 | 0.00 | 0.00 | 65 | 1015.6 |
| 20260510053504 | 9 | 150 | 8.0 | 8.0 | 0.00 | 0.00 | 0.00 | 65 | 1015.5 |
| 20260510053005 | 9 | 145 | 4.8 | 8.0 | 0.00 | 0.00 | 0.00 | 65 | 1015.5 |
| 20260510052505 | 9 | 139 | 4.8 | 8.0 | 0.00 | 0.00 | 0.00 | 64 | 1015.4 |
| 20260510051504 | 9 | 139 | 8.0 | 8.0 | 0.00 | 0.00 | 0.00 | 66 | 1015.4 |
| 20260510051005 | 8 | 139 | 4.8 | 12.9 | 0.00 | 0.00 | 0.00 | 67 | 1015.5 |
| 20260510050004 | 8 | 141 | 9.7 | 12.9 | 0.00 | 0.00 | 0.00 | 69 | 1015.4 |
| 20260510045504 | 8 | 139 | 9.7 | 14.5 | 0.00 | 0.00 | 0.00 | 67 | 1015.4 |
| 20260510045005 | 8 | 128 | 11.3 | 14.5 | 0.00 | 0.00 | 0.00 | 66 | 1015.4 |
| 20260510044005 | 9 | 116 | 11.3 | 11.3 | 0.00 | 0.00 | 0.00 | 66 | 1015.5 |
| 20260510043505 | 9 | 115 | 11.3 | 11.3 | 0.00 | 0.00 | 0.00 | 66 | 1015.5 |
| 20260510043005 | 9 | 114 | 11.3 | 11.3 | 0.00 | 0.00 | 0.00 | 66 | 1015.5 |
| 20260510042005 | 9 | 108 | 11.3 | 11.3 | 0.00 | 0.00 | 0.00 | 66 | 1015.5 |
| 20260510041504 | 9 | 108 | 9.7 | 11.3 | 0.00 | 0.00 | 0.00 | 66 | 1015.4 |
| 20260510041005 | 9 | 108 | 9.7 | 11.3 | 0.00 | 0.00 | 0.00 | 66 | 1015.3 |
| 20260510040004 | 9 | 113 | 9.7 | 12.9 | 0.00 | 0.00 | 0.00 | 65 | 1015.2 |
| 20260510035004 | 10 | 120 | 11.3 | 14.5 | 0.00 | 0.00 | 0.00 | 64 | 1015.0 |
| 20260510034504 | 10 | 124 | 11.3 | 14.5 | 0.00 | 0.00 | 0.00 | 64 | 1014.9 |
| 20260510034005 | 10 | 129 | 12.9 | 16.1 | 0.00 | 0.00 | 0.00 | 63 | 1014.9 |
| 20260510033505 | 10 | 132 | 14.5 | 16.1 | 0.00 | 0.00 | 0.00 | 63 | 1014.7 |
| 20260510033004 | 10 | 131 | 14.5 | 16.1 | 0.00 | 0.00 | 0.00 | 62 | 1014.7 |
| 20260510032504 | 10 | 129 | 12.9 | 14.5 | 0.00 | 0.00 | 0.00 | 61 | 1014.7 |
| 20260510032004 | 11 | 126 | 12.9 | 14.5 | 0.00 | 0.00 | 0.00 | 60 | 1014.7 |
| 20260510031504 | 11 | 125 | 11.3 | 14.5 | 0.00 | 0.00 | 0.00 | 59 | 1014.6 |
| 20260510031004 | 11 | 121 | 12.9 | 14.5 | 0.00 | 0.00 | 0.00 | 58 | 1014.5 |
| 20260510030004 | 12 | 127 | 12.9 | 16.1 | 0.00 | 0.00 | 0.00 | 57 | 1014.4 |
| 20260510025504 | 12 | 127 | 12.9 | 16.1 | 0.00 | 0.00 | 0.00 | 56 | 1014.3 |
| 20260510025005 | 12 | 124 | 12.9 | 16.1 | 0.00 | 0.00 | 0.00 | 55 | 1014.3 |
| 20260510024504 | 12 | 119 | 12.9 | 14.5 | 0.00 | 0.00 | 0.00 | 54 | 1014.3 |
| 20260510023504 | 13 | 107 | 11.3 | 16.1 | 0.00 | 0.00 | 0.00 | 52 | 1014.2 |
| 20260510023004 | 13 | 102 | 11.3 | 16.1 | 0.00 | 0.00 | 0.00 | 51 | 1014.1 |
| 20260510022504 | 13 | 97 | 11.3 | 16.1 | 0.00 | 0.00 | 0.00 | 50 | 1014.0 |
| 20260510021505 | 13 | 85 | 11.3 | 19.3 | 0.00 | 0.00 | 0.00 | 49 | 1013.9 |
| 20260510021004 | 14 | 85 | 12.9 | 19.3 | 0.00 | 0.00 | 0.00 | 49 | 1013.8 |
| 20260510020004 | 14 | 77 | 12.9 | 19.3 | 0.00 | 0.00 | 0.00 | 47 | 1013.8 |
| 20260510015504 | 14 | 75 | 9.7 | 16.1 | 0.00 | 0.00 | 0.00 | 46 | 1013.9 |
| 20260510015004 | 15 | 57 | 9.7 | 16.1 | 0.00 | 0.00 | 0.00 | 44 | 1013.9 |
| 20260510014504 | 15 | 60 | 8.0 | 16.1 | 0.00 | 0.00 | 0.00 | 42 | 1013.8 |
| 20260510014004 | 15 | 24 | 8.0 | 16.1 | 0.00 | 0.00 | 0.00 | 40 | 1013.8 |
| 20260510013504 | 15 | 18 | 4.8 | 9.7 | 0.00 | 0.00 | 0.00 | 38 | 1013.7 |
| 20260510013004 | 15 | 28 | 4.8 | 14.5 | 0.00 | 0.00 | 0.00 | 38 | 1013.6 |
| 20260510012505 | 15 | 31 | 8.0 | 14.5 | 0.00 | 0.00 | 0.00 | 37 | 1013.4 |
| 20260510012005 | 15 | 24 | 6.4 | 19.3 | 0.00 | 0.00 | 0.00 | 36 | 1013.3 |
| 20260510011504 | 15 | 26 | 9.7 | 19.3 | 0.00 | 0.00 | 0.00 | 36 | 1013.2 |
| 20260510011004 | 16 | 340 | 11.3 | 16.1 | 0.00 | 0.00 | 0.00 | 35 | 1013.2 |
| 20260510010005 | 16 | 291 | 9.7 | 16.1 | 0.00 | 0.00 | 0.00 | 33 | 1013.2 |
| 20260510005504 | 16 | 289 | 9.7 | 14.5 | 0.00 | 0.00 | 0.00 | 32 | 1013.2 |
| 20260510005004 | 16 | 285 | 8.0 | 19.3 | 0.00 | 0.00 | 0.00 | 33 | 1013.2 |
| 20260510004504 | 16 | 302 | 11.3 | 19.3 | 0.00 | 0.00 | 0.00 | 31 | 1013.3 |
| 20260510004004 | 16 | 294 | 12.9 | 19.3 | 0.00 | 0.00 | 0.00 | 31 | 1013.2 |
| 20260510003504 | 17 | 304 | 6.4 | 16.1 | 0.00 | 0.00 | 0.00 | 31 | 1013.2 |
| 20260510002504 | 17 | 312 | 11.3 | 19.3 | 0.00 | 0.00 | 0.00 | 32 | 1013.0 |
| 20260510002004 | 17 | 246 | 11.3 | 19.3 | 0.00 | 0.00 | 0.00 | 30 | 1013.0 |
| 20260510001004 | 17 | 317 | 4.8 | 20.9 | 0.00 | 0.00 | 0.00 | 31 | 1013.0 |
| 20260510000004 | 17 | 252 | 14.5 | 24.1 | 0.00 | 0.00 | 0.00 | 32 | 1013.0 |
| 20260509235504 | 17 | 284 | 11.3 | 20.9 | 0.00 | 0.00 | 0.00 | 31 | 1013.0 |
| 20260509235004 | 17 | 271 | 11.3 | 19.3 | 0.00 | 0.00 | 0.00 | 32 | 1013.0 |
| 20260509234504 | 17 | 302 | 11.3 | 19.3 | 0.00 | 0.00 | 0.00 | 33 | 1013.0 |
| 20260509234005 | 16 | 296 | 9.7 | 19.3 | 0.00 | 0.00 | 0.00 | 33 | 1013.0 |
| 20260509233505 | 16 | 313 | 8.0 | 19.3 | 0.00 | 0.00 | 0.00 | 32 | 1013.1 |
| 20260509233005 | 16 | 294 | 11.3 | 19.3 | 0.00 | 0.00 | 0.00 | 34 | 1013.1 |
| 20260509231505 | 16 | 297 | 11.3 | 19.3 | 0.00 | 0.00 | 0.00 | 33 | 1013.0 |
| 20260509231005 | 16 | 304 | 9.7 | 19.3 | 0.00 | 0.00 | 0.00 | 33 | 1013.1 |
| 20260509230005 | 16 | 280 | 9.7 | 19.3 | 0.00 | 0.00 | 0.00 | 33 | 1013.0 |
| 20260509225505 | 16 | 247 | 12.9 | 22.5 | 0.00 | 0.00 | 0.00 | 33 | 1013.0 |
| 20260509224505 | 16 | 273 | 14.5 | 22.5 | 0.00 | 0.00 | 0.00 | 34 | 1013.1 |
| 20260509223505 | 16 | 302 | 12.9 | 22.5 | 0.00 | 0.00 | 0.00 | 33 | 1013.1 |
| 20260509223006 | 16 | 299 | 14.5 | 22.5 | 0.00 | 0.00 | 0.00 | 33 | 1013.1 |
| 20260509222505 | 16 | 322 | 11.3 | 22.5 | 0.00 | 0.00 | 0.00 | 35 | 1013.1 |
| 20260509222005 | 16 | 316 | 9.7 | 20.9 | 0.00 | 0.00 | 0.00 | 35 | 1013.1 |
| 20260509221006 | 17 | 321 | 16.1 | 29.0 | 0.00 | 0.00 | 0.00 | 34 | 1013.1 |
| 20260509215505 | 17 | 269 | 16.1 | 37.0 | 0.00 | 0.00 | 0.00 | 32 | 1012.8 |
| 20260509215005 | 17 | 304 | 22.5 | 37.0 | 0.00 | 0.00 | 0.00 | 31 | 1012.8 |
| 20260509214505 | 17 | 307 | 19.3 | 32.2 | 0.00 | 0.00 | 0.00 | 30 | 1012.8 |
| 20260509214005 | 17 | 290 | 24.1 | 32.2 | 0.00 | 0.00 | 0.00 | 33 | 1012.7 |
| 20260509213006 | 16 | 292 | 25.7 | 35.4 | 0.00 | 0.00 | 0.00 | 32 | 1012.7 |
| 20260509212505 | 17 | 291 | 20.9 | 32.2 | 0.00 | 0.00 | 0.00 | 32 | 1012.7 |
| 20260509212005 | 16 | 287 | 20.9 | 40.2 | 0.00 | 0.00 | 0.00 | 32 | 1012.7 |
| 20260509211005 | 16 | 297 | 16.1 | 32.2 | 0.00 | 0.00 | 0.00 | 34 | 1012.7 |
| 20260509210005 | 15 | 273 | 20.9 | 32.2 | 0.00 | 0.00 | 0.00 | 34 | 1012.6 |
| 20260509205005 | 16 | 302 | 19.3 | 27.4 | 0.00 | 0.00 | 0.00 | 33 | 1012.6 |
| 20260509204505 | 16 | 310 | 17.7 | 32.2 | 0.00 | 0.00 | 0.00 | 33 | 1012.6 |
| 20260509204005 | 16 | 273 | 17.7 | 32.2 | 0.00 | 0.00 | 0.00 | 34 | 1012.6 |
| 20260509203505 | 16 | 282 | 20.9 | 38.6 | 0.00 | 0.00 | 0.00 | 33 | 1012.7 |
| 20260509203005 | 15 | 296 | 19.3 | 38.6 | 0.00 | 0.00 | 0.00 | 35 | 1012.7 |
| 20260509202505 | 16 | 283 | 20.9 | 33.8 | 0.00 | 0.00 | 0.00 | 34 | 1012.7 |
| 20260509201505 | 15 | 299 | 19.3 | 29.0 | 0.00 | 0.00 | 0.00 | 35 | 1012.6 |
| 20260509201005 | 15 | 291 | 16.1 | 29.0 | 0.00 | 0.00 | 0.00 | 33 | 1012.7 |
| 20260509200005 | 16 | 304 | 19.3 | 27.4 | 0.00 | 0.00 | 0.00 | 35 | 1012.5 |
| 20260509195505 | 15 | 305 | 19.3 | 27.4 | 0.00 | 0.00 | 0.00 | 36 | 1012.5 |
| 20260509195005 | 15 | 314 | 19.3 | 32.2 | 0.00 | 0.00 | 0.00 | 35 | 1012.5 |
| 20260509194505 | 15 | 311 | 14.5 | 35.4 | 0.00 | 0.00 | 0.00 | 37 | 1012.5 |
| 20260509194005 | 15 | 320 | 17.7 | 35.4 | 0.00 | 0.00 | 0.00 | 37 | 1012.6 |
| 20260509193505 | 15 | 315 | 20.9 | 32.2 | 0.00 | 0.00 | 0.00 | 36 | 1012.5 |
| 20260509193005 | 15 | 312 | 19.3 | 29.0 | 0.00 | 0.00 | 0.00 | 36 | 1012.4 |
| 20260509192505 | 15 | 305 | 20.9 | 29.0 | 0.00 | 0.00 | 0.00 | 36 | 1012.4 |
| 20260509192005 | 15 | 310 | 24.1 | 29.0 | 0.00 | 0.00 | 0.00 | 36 | 1012.3 |
| 20260509191505 | 15 | 290 | 17.7 | 35.4 | 0.00 | 0.00 | 0.00 | 36 | 1012.3 |
| 20260509190006 | 15 | 285 | 24.1 | 33.8 | 0.00 | 0.00 | 0.00 | 34 | 1012.2 |
| 20260509185505 | 15 | 309 | 17.7 | 32.2 | 0.00 | 0.00 | 0.00 | 33 | 1012.1 |
| 20260509185005 | 16 | 281 | 22.5 | 33.8 | 0.00 | 0.00 | 0.00 | 34 | 1012.1 |
| 20260509184505 | 15 | 275 | 25.7 | 38.6 | 0.00 | 0.00 | 0.00 | 31 | 1012.0 |
| 20260509183505 | 15 | 286 | 32.2 | 38.6 | 0.00 | 0.00 | 0.00 | 31 | 1012.0 |
| 20260509183006 | 16 | 281 | 25.7 | 38.6 | 0.00 | 0.00 | 0.00 | 33 | 1011.9 |
| 20260509182504 | 15 | 285 | 20.9 | 40.2 | 0.00 | 0.00 | 0.00 | 34 | 1011.9 |
| 20260509182005 | 15 | 277 | 29.0 | 41.8 | 0.00 | 0.00 | 0.00 | 34 | 1011.9 |
| 20260509181505 | 15 | 278 | 22.5 | 41.8 | 0.00 | 0.00 | 0.00 | 35 | 1011.9 |
| 20260509181006 | 15 | 298 | 20.9 | 41.8 | 0.00 | 0.00 | 0.00 | 33 | 1011.9 |
| 20260509175505 | 15 | 286 | 17.7 | 41.8 | 0.00 | 0.00 | 0.00 | 33 | 1011.9 |
| 20260509175005 | 15 | 275 | 27.4 | 41.8 | 0.00 | 0.00 | 0.00 | 32 | 1012.1 |
| 20260509174505 | 15 | 292 | 19.3 | 38.6 | 0.00 | 0.00 | 0.00 | 35 | 1012.0 |
| 20260509174005 | 15 | 287 | 25.7 | 38.6 | 0.00 | 0.00 | 0.00 | 33 | 1012.0 |
| 20260509173505 | 15 | 289 | 25.7 | 32.2 | 0.00 | 0.00 | 0.00 | 34 | 1012.0 |
| 20260509173005 | 15 | 265 | 19.3 | 32.2 | 0.00 | 0.00 | 0.00 | 33 | 1012.0 |
| 20260509172005 | 14 | 310 | 19.3 | 32.2 | 0.00 | 0.00 | 0.00 | 36 | 1011.9 |
| 20260509171505 | 14 | 295 | 22.5 | 32.2 | 0.00 | 0.00 | 0.00 | 36 | 1012.0 |
| 20260509171005 | 14 | 285 | 20.9 | 32.2 | 0.00 | 0.00 | 0.00 | 35 | 1012.0 |
| 20260509170005 | 13 | 282 | 19.3 | 32.2 | 0.00 | 0.00 | 0.00 | 36 | 1012.0 |
| 20260509165505 | 14 | 287 | 20.9 | 32.2 | 0.00 | 0.00 | 0.00 | 35 | 1012.1 |
| 20260509164505 | 13 | 272 | 17.7 | 33.8 | 0.00 | 0.00 | 0.00 | 36 | 1012.0 |
| 20260509164005 | 13 | 270 | 20.9 | 33.8 | 0.00 | 0.00 | 0.00 | 35 | 1012.1 |
| 20260509163505 | 13 | 282 | 20.9 | 35.4 | 0.00 | 0.00 | 0.00 | 36 | 1012.1 |
| 20260509163005 | 13 | 277 | 20.9 | 35.4 | 0.00 | 0.00 | 0.00 | 37 | 1012.1 |
| 20260509162505 | 13 | 257 | 22.5 | 35.4 | 0.00 | 0.00 | 0.00 | 36 | 1011.9 |
| 20260509161505 | 13 | 292 | 19.3 | 32.2 | 0.00 | 0.00 | 0.00 | 38 | 1012.0 |
| 20260509161005 | 13 | 286 | 20.9 | 38.6 | 0.00 | 0.00 | 0.00 | 37 | 1012.0 |
| 20260509160005 | 13 | 274 | 25.7 | 38.6 | 0.00 | 0.00 | 0.00 | 37 | 1011.9 |
| 20260509155005 | 12 | 279 | 24.1 | 38.6 | 0.00 | 0.00 | 0.00 | 38 | 1011.8 |
| 20260509154504 | 12 | 291 | 24.1 | 38.6 | 0.00 | 0.00 | 0.00 | 37 | 1011.7 |
| 20260509154005 | 12 | 293 | 27.4 | 41.8 | 0.00 | 0.00 | 0.00 | 38 | 1011.7 |
| 20260509153005 | 12 | 287 | 32.2 | 48.3 | 0.00 | 0.00 | 0.00 | 38 | 1011.8 |
| 20260509152504 | 12 | 279 | 32.2 | 48.3 | 0.00 | 0.00 | 0.00 | 39 | 1011.7 |
| 20260509152005 | 12 | 263 | 32.2 | 41.8 | 0.00 | 0.00 | 0.00 | 39 | 1011.6 |
| 20260509151504 | 12 | 273 | 32.2 | 41.8 | 0.00 | 0.00 | 0.00 | 39 | 1011.5 |
| 20260509151005 | 12 | 269 | 27.4 | 45.1 | 0.00 | 0.00 | 0.00 | 39 | 1011.6 |
| 20260509150004 | 11 | 260 | 32.2 | 48.3 | 0.00 | 0.00 | 0.00 | 38 | 1011.4 |
| 20260509145505 | 11 | 255 | 33.8 | 48.3 | 0.00 | 0.00 | 0.00 | 38 | 1011.4 |
| 20260509144505 | 11 | 258 | 29.0 | 41.8 | 0.00 | 0.00 | 0.00 | 39 | 1011.3 |
| 20260509144005 | 11 | 252 | 22.5 | 40.2 | 0.00 | 0.00 | 0.00 | 39 | 1011.4 |
| 20260509143504 | 11 | 272 | 25.7 | 37.0 | 0.00 | 0.00 | 0.00 | 38 | 1011.5 |
| 20260509143005 | 11 | 269 | 25.7 | 32.2 | 0.00 | 0.00 | 0.00 | 38 | 1011.5 |
| 20260509142504 | 11 | 276 | 20.9 | 35.4 | 0.00 | 0.00 | 0.00 | 39 | 1011.4 |
| 20260509142005 | 11 | 272 | 22.5 | 35.4 | 0.00 | 0.00 | 0.00 | 38 | 1011.4 |
| 20260509141504 | 11 | 257 | 22.5 | 32.2 | 0.00 | 0.00 | 0.00 | 39 | 1011.3 |
| 20260509141005 | 11 | 263 | 20.9 | 32.2 | 0.00 | 0.00 | 0.00 | 39 | 1011.2 |
| 20260509140006 | 10 | 265 | 25.7 | 32.2 | 0.00 | 0.00 | 0.00 | 40 | 1011.2 |
| 20260509135005 | 10 | 263 | 20.9 | 40.2 | 0.00 | 0.00 | 0.00 | 39 | 1011.1 |
| 20260509134504 | 10 | 277 | 22.5 | 41.8 | 0.00 | 0.00 | 0.00 | 38 | 1011.1 |
| 20260509134004 | 10 | 264 | 29.0 | 41.8 | 0.00 | 0.00 | 0.00 | 38 | 1010.9 |
| 20260509133505 | 10 | 255 | 24.1 | 38.6 | 0.00 | 0.00 | 0.00 | 38 | 1010.9 |
| 20260509133005 | 10 | 251 | 27.4 | 38.6 | 0.00 | 0.00 | 0.00 | 37 | 1010.7 |
| 20260509132505 | 10 | 262 | 27.4 | 40.2 | 0.00 | 0.00 | 0.00 | 38 | 1010.7 |
| 20260509132005 | 10 | 256 | 24.1 | 40.2 | 0.00 | 0.00 | 0.00 | 38 | 1010.7 |
| 20260509131504 | 10 | 251 | 27.4 | 40.2 | 0.00 | 0.00 | 0.00 | 37 | 1010.6 |
| 20260509131005 | 10 | 252 | 22.5 | 35.4 | 0.00 | 0.00 | 0.00 | 39 | 1010.6 |
| 20260509130005 | 9 | 247 | 19.3 | 29.0 | 0.00 | 0.00 | 0.00 | 39 | 1010.7 |
| 20260509125505 | 9 | 246 | 20.9 | 29.0 | 0.00 | 0.00 | 0.00 | 40 | 1010.7 |
| 20260509125005 | 8 | 255 | 19.3 | 29.0 | 0.00 | 0.00 | 0.00 | 40 | 1010.7 |
| 20260509124505 | 8 | 250 | 19.3 | 25.7 | 0.00 | 0.00 | 0.00 | 41 | 1010.7 |
| 20260509124005 | 8 | 250 | 19.3 | 24.1 | 0.00 | 0.00 | 0.00 | 41 | 1010.7 |
| 20260509123504 | 8 | 251 | 16.1 | 24.1 | 0.00 | 0.00 | 0.00 | 42 | 1010.6 |
| 20260509122504 | 8 | 245 | 16.1 | 25.7 | 0.00 | 0.00 | 0.00 | 42 | 1010.5 |
| 20260509121504 | 8 | 246 | 20.9 | 29.0 | 0.00 | 0.00 | 0.00 | 41 | 1010.2 |
| 20260509121005 | 8 | 254 | 20.9 | 33.8 | 0.00 | 0.00 | 0.00 | 40 | 1010.2 |
| 20260509120005 | 9 | 250 | 20.9 | 29.0 | 0.00 | 0.00 | 0.00 | 40 | 1010.0 |
| 20260509115504 | 9 | 253 | 19.3 | 29.0 | 0.00 | 0.00 | 0.00 | 41 | 1010.0 |
| 20260509115005 | 9 | 240 | 16.1 | 29.0 | 0.00 | 0.00 | 0.00 | 40 | 1010.0 |
| 20260509114505 | 9 | 250 | 20.9 | 29.0 | 0.00 | 0.00 | 0.00 | 40 | 1009.9 |
| 20260509114005 | 9 | 238 | 16.1 | 29.0 | 0.00 | 0.00 | 0.00 | 40 | 1009.8 |
| 20260509113505 | 10 | 249 | 20.9 | 32.2 | 0.00 | 0.00 | 0.00 | 40 | 1009.8 |
| 20260509113005 | 10 | 262 | 19.3 | 32.2 | 0.00 | 0.00 | 0.00 | 39 | 1009.8 |